EFW7EL EGKK-LEPA

Flight info

Callsign EFW7EL
Flight time N/A
Altitude 35000
Route SFD4Z SFD Y47 DRAKE L151 SITET UN859 SOPIL DCT BALAN DCT EVPOK DCT NARAK DCT GAI DCT LOMRA DCT ROCAN DCT IBRAP DCT LUKEV DCT LORES LORES2R
Aircraft A321/M-SDE3FGIJ1RWXY/SB1

Departure

Time 2026-05-07 18:41
Airport London Gatwick Airport (EGKK)

Arrival

Time N/A
Airport Palma de Mallorca Airport (LEPA)
Time Latitude Longitude Altitude Speed Heading
2026-05-07 17:51 51.15530 -0.16601 205 ft 0 kts 348°
2026-05-07 18:25 51.15522 -0.16598 205 ft 4 kts 347°
2026-05-07 18:25 51.15496 -0.16587 209 ft 4 kts 340°
2026-05-07 18:25 51.15472 -0.16569 215 ft 4 kts 310°
2026-05-07 18:26 51.15466 -0.16546 215 ft 0 kts 259°
2026-05-07 18:29 51.15464 -0.16558 215 ft 2 kts 259°
2026-05-07 18:29 51.15459 -0.16599 209 ft 6 kts 258°
2026-05-07 18:29 51.15449 -0.16679 213 ft 9 kts 262°
2026-05-07 18:29 51.15454 -0.16784 209 ft 10 kts 268°
2026-05-07 18:30 51.15440 -0.16900 205 ft 10 kts 258°
2026-05-07 18:30 51.15427 -0.16996 209 ft 8 kts 257°
2026-05-07 18:30 51.15416 -0.17072 211 ft 8 kts 257°
2026-05-07 18:30 51.15396 -0.17164 211 ft 10 kts 248°
2026-05-07 18:31 51.15378 -0.17251 210 ft 5 kts 252°
2026-05-07 18:31 51.15377 -0.17259 212 ft 0 kts 251°
2026-05-07 18:32 51.15376 -0.17261 213 ft 1 kts 251°
2026-05-07 18:32 51.15368 -0.17299 211 ft 6 kts 252°
2026-05-07 18:32 51.15339 -0.17359 217 ft 9 kts 210°
2026-05-07 18:33 51.15301 -0.17450 214 ft 12 kts 258°
2026-05-07 18:33 51.15282 -0.17591 205 ft 14 kts 257°
2026-05-07 18:33 51.15259 -0.17759 209 ft 16 kts 258°
2026-05-07 18:33 51.15237 -0.17924 207 ft 14 kts 257°
2026-05-07 18:34 51.15218 -0.18059 211 ft 11 kts 257°
2026-05-07 18:34 51.15203 -0.18169 205 ft 9 kts 258°
2026-05-07 18:34 51.15191 -0.18258 208 ft 8 kts 261°
2026-05-07 18:34 51.15183 -0.18349 209 ft 9 kts 259°
2026-05-07 18:35 51.15167 -0.18470 211 ft 13 kts 258°
2026-05-07 18:35 51.15148 -0.18610 205 ft 13 kts 257°
2026-05-07 18:35 51.15126 -0.18769 214 ft 18 kts 257°
2026-05-07 18:35 51.15097 -0.18981 214 ft 20 kts 258°
2026-05-07 18:36 51.15068 -0.19197 209 ft 20 kts 258°
2026-05-07 18:36 51.15038 -0.19416 214 ft 20 kts 258°
2026-05-07 18:36 51.15007 -0.19638 208 ft 21 kts 257°
2026-05-07 18:36 51.14977 -0.19864 205 ft 21 kts 257°
2026-05-07 18:37 51.14944 -0.20095 205 ft 22 kts 257°
2026-05-07 18:37 51.14911 -0.20330 209 ft 22 kts 257°
2026-05-07 18:37 51.14877 -0.20568 207 ft 22 kts 257°
2026-05-07 18:37 51.14845 -0.20809 207 ft 22 kts 258°
2026-05-07 18:38 51.14814 -0.21034 209 ft 19 kts 257°
2026-05-07 18:38 51.14786 -0.21183 208 ft 12 kts 251°
2026-05-07 18:38 51.14766 -0.21313 210 ft 12 kts 257°
2026-05-07 18:38 51.14748 -0.21395 215 ft 6 kts 226°
2026-05-07 18:39 51.14708 -0.21405 213 ft 6 kts 174°
2026-05-07 18:39 51.14672 -0.21372 207 ft 6 kts 135°
2026-05-07 18:39 51.14632 -0.21337 207 ft 7 kts 163°
2026-05-07 18:39 51.14575 -0.21311 209 ft 10 kts 160°
2026-05-07 18:40 51.14522 -0.21225 210 ft 12 kts 113°
2026-05-07 18:40 51.14530 -0.21097 209 ft 16 kts 78°
2026-05-07 18:40 51.14599 -0.20594 217 ft 81 kts 77°
2026-05-07 18:40 51.14767 -0.19380 209 ft 141 kts 78°
2026-05-07 18:41 51.15015 -0.17614 391 ft 173 kts 78°
2026-05-07 18:41 51.15273 -0.15763 1106 ft 174 kts 80°
2026-05-07 18:41 51.15537 -0.13869 1697 ft 179 kts 79°
2026-05-07 18:41 51.15817 -0.11810 1928 ft 201 kts 79°
2026-05-07 18:42 51.16115 -0.09577 2145 ft 219 kts 81°
2026-05-07 18:42 51.15980 -0.07172 2630 ft 224 kts 117°
2026-05-07 18:42 51.14890 -0.05382 3082 ft 239 kts 154°
2026-05-07 18:42 51.13247 -0.04507 3475 ft 256 kts 165°
2026-05-07 18:43 51.11487 -0.03909 4130 ft 261 kts 168°
2026-05-07 18:43 51.09684 -0.03383 4838 ft 265 kts 168°
2026-05-07 18:43 51.07869 -0.02745 5266 ft 269 kts 164°
2026-05-07 18:43 51.06124 -0.02005 5515 ft 268 kts 163°
2026-05-07 18:44 51.04335 -0.01176 5810 ft 268 kts 162°
2026-05-07 18:44 51.02542 -0.00319 6145 ft 270 kts 162°
2026-05-07 18:44 51.00779 0.00531 6395 ft 271 kts 162°
2026-05-07 18:44 50.98931 0.01421 6676 ft 272 kts 162°
2026-05-07 18:45 50.97115 0.02290 6939 ft 273 kts 163°
2026-05-07 18:45 50.95313 0.03145 7036 ft 274 kts 163°
2026-05-07 18:45 50.93486 0.04012 7052 ft 274 kts 163°
2026-05-07 18:45 50.91649 0.04882 7359 ft 277 kts 163°
2026-05-07 18:46 50.89808 0.05749 8126 ft 276 kts 165°
2026-05-07 18:46 50.87957 0.06618 8788 ft 279 kts 165°
2026-05-07 18:46 50.86082 0.07497 9444 ft 283 kts 165°
2026-05-07 18:46 50.84184 0.08383 10081 ft 286 kts 166°
2026-05-07 18:47 50.82270 0.09279 10679 ft 288 kts 165°
2026-05-07 18:47 50.80338 0.10186 11285 ft 290 kts 165°
2026-05-07 18:47 50.78392 0.11098 11896 ft 293 kts 165°
2026-05-07 18:47 50.76396 0.11725 12495 ft 293 kts 178°
2026-05-07 18:48 50.74339 0.11588 12827 ft 304 kts 192°
2026-05-07 18:48 50.72215 0.10823 12969 ft 321 kts 194°
2026-05-07 18:48 50.69986 0.09989 13097 ft 338 kts 194°
2026-05-07 18:48 50.67641 0.09124 13263 ft 353 kts 194°
2026-05-07 18:49 50.65221 0.08243 13673 ft 359 kts 193°
2026-05-07 18:49 50.62770 0.07362 14134 ft 363 kts 193°
2026-05-07 18:49 50.60324 0.06485 14608 ft 366 kts 194°
2026-05-07 18:49 50.57808 0.05581 15085 ft 368 kts 194°
2026-05-07 18:50 50.55299 0.04679 15575 ft 371 kts 194°
2026-05-07 18:50 50.52780 0.03774 16065 ft 373 kts 194°
2026-05-07 18:50 50.50238 0.02863 16555 ft 375 kts 194°
2026-05-07 18:50 50.47684 0.01944 17041 ft 378 kts 194°
2026-05-07 18:51 50.45113 0.01019 17504 ft 380 kts 194°
2026-05-07 18:51 50.42525 0.00086 17961 ft 382 kts 194°
2026-05-07 18:51 50.39928 -0.00846 18398 ft 385 kts 194°
2026-05-07 18:51 50.37339 -0.01773 18773 ft 387 kts 194°
2026-05-07 18:52 50.34709 -0.02709 19185 ft 388 kts 194°
2026-05-07 18:52 50.32070 -0.03648 19581 ft 390 kts 194°
2026-05-07 18:52 50.29417 -0.04593 19975 ft 392 kts 194°
2026-05-07 18:52 50.26749 -0.05540 20365 ft 394 kts 194°
2026-05-07 18:53 50.24050 -0.06342 20741 ft 397 kts 187°
2026-05-07 18:53 50.21278 -0.06415 21116 ft 401 kts 177°
2026-05-07 18:53 50.18515 -0.05658 21482 ft 406 kts 166°
2026-05-07 18:53 50.15859 -0.04088 21855 ft 411 kts 158°
2026-05-07 18:54 50.13257 -0.02260 22231 ft 413 kts 158°
2026-05-07 18:54 50.10605 -0.00440 22590 ft 414 kts 161°
2026-05-07 18:54 50.07851 0.00870 22934 ft 414 kts 168°
2026-05-07 18:54 50.05045 0.01959 23285 ft 417 kts 168°
2026-05-07 18:55 50.02222 0.03059 23640 ft 419 kts 168°
2026-05-07 18:55 49.99393 0.04165 23936 ft 421 kts 168°
2026-05-07 18:55 49.97504 0.04905 24137 ft 422 kts 168°
2026-05-07 18:55 49.93683 0.06406 24523 ft 425 kts 168°
2026-05-07 18:56 49.91782 0.07154 24721 ft 426 kts 168°
2026-05-07 18:56 49.88902 0.08289 25029 ft 428 kts 168°
2026-05-07 18:56 49.86011 0.09426 25314 ft 429 kts 168°
2026-05-07 18:56 49.83111 0.10562 25606 ft 431 kts 168°
2026-05-07 18:57 49.80191 0.11704 25900 ft 433 kts 168°
2026-05-07 18:57 49.77271 0.12847 26189 ft 434 kts 168°
2026-05-07 18:57 49.74331 0.13996 26470 ft 436 kts 168°
2026-05-07 18:57 49.71384 0.15144 26759 ft 437 kts 168°
2026-05-07 18:58 49.68427 0.16294 27040 ft 439 kts 168°
2026-05-07 18:58 49.65456 0.17456 27318 ft 441 kts 168°
2026-05-07 18:58 49.62482 0.18646 27591 ft 443 kts 167°
2026-05-07 18:58 49.59494 0.19857 27852 ft 444 kts 167°
2026-05-07 18:59 49.56507 0.21073 28099 ft 446 kts 167°
2026-05-07 18:59 49.53501 0.22293 28342 ft 447 kts 167°
2026-05-07 18:59 49.50485 0.23510 28564 ft 449 kts 168°
2026-05-07 18:59 49.47461 0.24726 28780 ft 450 kts 168°
2026-05-07 19:00 49.44421 0.25942 29037 ft 450 kts 168°
2026-05-07 19:00 49.41431 0.27135 29347 ft 449 kts 168°
2026-05-07 19:00 49.38410 0.28339 29658 ft 448 kts 168°
2026-05-07 19:00 49.35384 0.29547 29956 ft 448 kts 168°
2026-05-07 19:01 49.32369 0.30752 30236 ft 447 kts 168°
2026-05-07 19:01 49.29367 0.31958 30477 ft 447 kts 167°
2026-05-07 19:01 49.26369 0.33202 30716 ft 446 kts 167°
2026-05-07 19:01 49.23368 0.34473 30957 ft 446 kts 167°
2026-05-07 19:02 49.20388 0.35751 31204 ft 445 kts 167°
2026-05-07 19:02 49.17411 0.37028 31450 ft 444 kts 167°
2026-05-07 19:02 49.14436 0.38297 31696 ft 444 kts 167°
2026-05-07 19:02 49.11458 0.39558 31943 ft 443 kts 167°
2026-05-07 19:03 49.08490 0.40807 32191 ft 442 kts 167°
2026-05-07 19:03 49.05524 0.42038 32417 ft 441 kts 167°
2026-05-07 19:03 49.02563 0.43259 32653 ft 441 kts 167°
2026-05-07 19:03 48.99603 0.44481 32879 ft 440 kts 167°
2026-05-07 19:04 48.96647 0.45706 33083 ft 441 kts 167°
2026-05-07 19:04 48.93691 0.46937 33291 ft 440 kts 167°
2026-05-07 19:04 48.90736 0.48173 33505 ft 440 kts 167°
2026-05-07 19:04 48.87792 0.49402 33730 ft 439 kts 167°
2026-05-07 19:05 48.84844 0.50634 33953 ft 439 kts 167°
2026-05-07 19:05 48.81912 0.51855 34149 ft 438 kts 167°
2026-05-07 19:05 48.78966 0.53077 34311 ft 438 kts 167°
2026-05-07 19:05 48.76018 0.54272 34468 ft 438 kts 168°
2026-05-07 19:06 48.73064 0.55433 34615 ft 438 kts 168°
2026-05-07 19:06 48.67153 0.57710 34916 ft 438 kts 168°
2026-05-07 19:06 48.64196 0.58855 34999 ft 439 kts 168°
2026-05-07 19:07 48.58325 0.61144 35025 ft 439 kts 168°
2026-05-07 19:07 48.52388 0.63460 35022 ft 439 kts 168°
2026-05-07 19:08 48.46492 0.65815 35017 ft 439 kts 168°
2026-05-07 19:08 48.40589 0.68233 35017 ft 439 kts 168°
2026-05-07 19:09 48.34689 0.70655 35016 ft 439 kts 168°
2026-05-07 19:09 48.28782 0.73050 35018 ft 439 kts 168°
2026-05-07 19:10 48.22918 0.75406 35022 ft 439 kts 168°
2026-05-07 19:10 48.16967 0.77751 35019 ft 439 kts 169°
2026-05-07 19:11 48.11096 0.80036 35022 ft 439 kts 169°
2026-05-07 19:11 48.05184 0.82342 35021 ft 439 kts 169°
2026-05-07 19:12 47.99285 0.84657 35013 ft 439 kts 169°
2026-05-07 19:12 47.93375 0.86970 35011 ft 439 kts 169°
2026-05-07 19:13 47.87461 0.89274 35007 ft 439 kts 169°
2026-05-07 19:13 47.81541 0.91566 35011 ft 439 kts 169°